Tracking 26544 objects as of 9-Dec-2022
HD Live streaming from Space Station
objects crossing your sky now

STARLINK-4795

Track STARLINK-4795 now!
10-day predictions
STARLINK-4795 is classified as:


NORAD ID: 53856
Int'l Code: 2022-114AQ
Perigee: 354.5 km
Apogee: 359.0 km
Inclination: 53.2 °
Period: 91.5 minutes
Semi major axis: 6727 km
RCS: Unknown
Launch date: September 19, 2022
Source: United States (US)
Launch site: AIR FORCE EASTERN TEST RANGE (AFETR)
aabbcc
Your satellite tracking list
Your tracking list is empty




NASA's NSSDC Master Catalog

Two Line Element Set (TLE):
1 53856U 22114AQ  22341.96497156  .00037599  00000-0  27035-3 0  9999
2 53856  53.2135 223.2457 0003343  13.8197 346.2914 15.73261675 13708
Source of the keplerian elements: AFSPC